TimeEDT,TemperatureF,Dew PointF,Humidity,Sea Level PressureIn,VisibilityMPH,Wind Direction,Wind SpeedMPH,Gust SpeedMPH,PrecipitationIn,Events,Conditions,WindDirDegrees,DateUTC
12:15 AM,76.8,75.0,94,30.06,10.0,Calm,Calm,-,N/A,,Clear,0,2013-08-24 04:15:00
12:35 AM,76.3,74.8,95,30.06,10.0,Calm,Calm,-,N/A,,Clear,0,2013-08-24 04:35:00
12:55 AM,76.5,74.8,95,30.05,10.0,South,4.6,-,N/A,,Clear,190,2013-08-24 04:55:00
1:15 AM,77.0,75.0,94,30.07,10.0,ENE,6.9,-,N/A,,Clear,60,2013-08-24 05:15:00
1:35 AM,77.0,74.7,92,30.08,10.0,East,5.8,-,N/A,,Clear,80,2013-08-24 05:35:00
1:55 AM,76.6,74.5,93,30.08,10.0,South,4.6,-,N/A,,Clear,170,2013-08-24 05:55:00
2:15 AM,76.1,74.8,96,30.07,10.0,South,3.5,-,N/A,,Clear,190,2013-08-24 06:15:00
2:35 AM,75.6,74.7,97,30.07,10.0,SSW,3.5,-,N/A,,Clear,200,2013-08-24 06:35:00
2:55 AM,75.4,74.3,96,30.06,10.0,WSW,4.6,-,N/A,,Clear,240,2013-08-24 06:55:00
3:15 AM,75.4,73.9,95,30.07,10.0,Calm,Calm,-,N/A,,Clear,0,2013-08-24 07:15:00
3:35 AM,75.2,73.6,95,30.07,10.0,SW,3.5,-,N/A,,Clear,230,2013-08-24 07:35:00
3:55 AM,75.0,73.6,95,30.08,10.0,Calm,Calm,-,N/A,,Clear,0,2013-08-24 07:55:00
4:15 AM,74.3,73.8,98,30.10,10.0,Calm,Calm,-,N/A,,Clear,0,2013-08-24 08:15:00
4:35 AM,73.9,73.6,99,30.11,10.0,Calm,Calm,-,N/A,,Mostly Cloudy,0,2013-08-24 08:35:00
4:55 AM,74.8,74.3,98,30.11,10.0,Calm,Calm,-,N/A,,Overcast,0,2013-08-24 08:55:00
5:15 AM,75.2,74.3,97,30.11,10.0,Calm,Calm,-,N/A,,Overcast,0,2013-08-24 09:15:00
5:35 AM,75.2,74.5,98,30.11,10.0,Calm,Calm,-,N/A,,Overcast,0,2013-08-24 09:35:00
5:55 AM,74.8,74.3,98,30.11,10.0,Calm,Calm,-,N/A,,Overcast,0,2013-08-24 09:55:00
6:15 AM,74.5,73.9,98,30.11,10.0,Calm,Calm,-,N/A,,Scattered Clouds,0,2013-08-24 10:15:00
6:35 AM,73.9,73.6,99,30.11,10.0,Calm,Calm,-,N/A,,Clear,0,2013-08-24 10:35:00
6:55 AM,73.8,73.6,99,30.12,10.0,Calm,Calm,-,N/A,,Clear,0,2013-08-24 10:55:00
7:15 AM,73.4,73.4,100,30.12,10.0,Calm,Calm,-,N/A,,Clear,0,2013-08-24 11:15:00
7:35 AM,73.0,72.9,99,30.13,10.0,Calm,Calm,-,N/A,,Clear,0,2013-08-24 11:35:00
7:55 AM,73.6,73.6,100,30.15,10.0,Calm,Calm,-,N/A,,Clear,0,2013-08-24 11:55:00
8:15 AM,74.5,73.9,98,30.15,10.0,Calm,Calm,-,N/A,,Clear,0,2013-08-24 12:15:00
8:35 AM,75.4,73.8,95,30.15,10.0,Calm,Calm,-,N/A,,Clear,0,2013-08-24 12:35:00
8:55 AM,76.5,73.2,90,30.15,10.0,Calm,Calm,-,N/A,,Clear,0,2013-08-24 12:55:00
9:15 AM,77.9,73.8,87,30.16,10.0,Calm,Calm,-,N/A,,Clear,0,2013-08-24 13:15:00
9:35 AM,80.4,74.1,81,30.16,10.0,Calm,Calm,-,N/A,,Clear,0,2013-08-24 13:35:00
9:55 AM,79.9,74.5,83,30.17,10.0,Calm,Calm,-,N/A,,Scattered Clouds,0,2013-08-24 13:55:00
10:15 AM,81.7,74.8,80,30.18,10.0,Calm,Calm,-,N/A,,Mostly Cloudy,0,2013-08-24 14:15:00
10:35 AM,83.8,75.0,75,30.18,10.0,East,3.5,-,N/A,,Mostly Cloudy,90,2013-08-24 14:35:00
10:55 AM,84.6,75.2,73,30.18,10.0,ENE,3.5,-,N/A,,Clear,70,2013-08-24 14:55:00
11:15 AM,86.2,75.7,71,30.18,10.0,NE,8.1,-,N/A,,Scattered Clouds,40,2013-08-24 15:15:00
11:35 AM,86.5,75.4,69,30.19,10.0,ENE,8.1,-,N/A,,Clear,70,2013-08-24 15:35:00
11:55 AM,86.9,75.6,69,30.19,10.0,East,5.8,-,N/A,,Clear,90,2013-08-24 15:55:00
12:15 PM,88.0,76.5,69,30.18,10.0,ENE,3.5,-,N/A,,Scattered Clouds,70,2013-08-24 16:15:00
12:35 PM,87.1,76.8,71,30.18,10.0,NE,5.8,-,N/A,,Overcast,50,2013-08-24 16:35:00
12:55 PM,88.9,77.2,68,30.18,10.0,ENE,8.1,-,N/A,,Mostly Cloudy,60,2013-08-24 16:55:00
1:15 PM,87.8,77.4,71,30.18,10.0,NE,9.2,-,N/A,,Mostly Cloudy,50,2013-08-24 17:15:00
1:35 PM,87.6,77.2,71,30.19,10.0,NE,10.4,-,N/A,,Mostly Cloudy,50,2013-08-24 17:35:00
1:55 PM,85.1,76.3,75,30.19,10.0,ENE,12.7,17.3,N/A,,Overcast,60,2013-08-24 17:55:00
2:15 PM,84.4,76.5,77,30.19,10.0,NE,10.4,-,N/A,,Overcast,40,2013-08-24 18:15:00
2:35 PM,82.9,75.9,79,30.19,10.0,ENE,9.2,-,N/A,,Overcast,70,2013-08-24 18:35:00
2:55 PM,81.9,75.9,82,30.19,10.0,NE,8.1,-,N/A,,Overcast,50,2013-08-24 18:55:00
3:15 PM,82.9,76.5,81,30.18,10.0,ENE,6.9,-,N/A,,Overcast,70,2013-08-24 19:15:00
3:35 PM,81.7,76.5,84,30.18,10.0,NE,9.2,-,N/A,,Overcast,40,2013-08-24 19:35:00
3:55 PM,80.1,76.1,88,30.18,7.0,NE,9.2,-,N/A,,Overcast,50,2013-08-24 19:55:00
4:15 PM,81.3,76.3,85,30.17,7.0,NE,9.2,-,N/A,,Overcast,50,2013-08-24 20:15:00
4:35 PM,82.2,77.0,84,30.17,7.0,NE,6.9,-,N/A,,Overcast,50,2013-08-24 20:35:00
4:55 PM,82.0,76.5,83,30.17,7.0,ENE,11.5,16.1,N/A,,Overcast,70,2013-08-24 20:55:00
5:15 PM,81.5,75.7,83,30.17,10.0,ENE,12.7,16.1,N/A,,Overcast,60,2013-08-24 21:15:00
5:35 PM,81.7,76.1,83,30.17,10.0,ENE,13.8,19.6,N/A,,Overcast,70,2013-08-24 21:35:00
5:55 PM,80.1,75.6,86,30.17,10.0,NE,9.2,-,N/A,,Overcast,50,2013-08-24 21:55:00
6:15 PM,79.2,75.6,89,30.17,7.0,ENE,9.2,-,N/A,,Overcast,60,2013-08-24 22:15:00
6:35 PM,79.2,75.0,87,30.17,10.0,ENE,12.7,-,N/A,,Overcast,70,2013-08-24 22:35:00
6:55 PM,79.0,75.0,88,30.17,10.0,ENE,6.9,-,N/A,,Overcast,70,2013-08-24 22:55:00
7:15 PM,79.0,75.2,88,30.18,10.0,NE,8.1,-,N/A,,Overcast,50,2013-08-24 23:15:00
7:35 PM,78.8,74.8,88,30.18,10.0,NE,6.9,-,N/A,,Overcast,50,2013-08-24 23:35:00
7:55 PM,77.9,74.5,89,30.18,7.0,NE,10.4,-,N/A,,Overcast,50,2013-08-24 23:55:00
8:15 PM,77.9,74.3,89,30.19,10.0,ENE,10.4,-,N/A,,Overcast,60,2013-08-25 00:15:00
8:35 PM,77.9,73.8,87,30.20,10.0,East,5.8,-,N/A,,Overcast,90,2013-08-25 00:35:00
8:55 PM,77.9,73.6,86,30.21,10.0,East,4.6,-,N/A,,Overcast,80,2013-08-25 00:55:00
9:15 PM,77.5,73.6,88,30.22,10.0,East,4.6,-,N/A,,Overcast,90,2013-08-25 01:15:00
9:35 PM,77.4,73.6,88,30.22,10.0,ENE,4.6,-,N/A,,Overcast,70,2013-08-25 01:35:00
9:55 PM,77.2,73.6,89,30.22,10.0,ENE,3.5,-,N/A,,Overcast,60,2013-08-25 01:55:00
10:15 PM,77.2,73.8,89,30.23,10.0,Calm,Calm,-,N/A,,Overcast,0,2013-08-25 02:15:00
10:35 PM,77.2,73.6,89,30.23,10.0,ENE,3.5,-,N/A,,Overcast,70,2013-08-25 02:35:00
10:55 PM,77.0,73.9,90,30.23,10.0,Calm,Calm,-,N/A,,Overcast,0,2013-08-25 02:55:00
11:15 PM,77.0,73.9,90,30.23,10.0,ENE,3.5,-,N/A,,Overcast,70,2013-08-25 03:15:00
11:35 PM,77.2,73.8,89,30.24,10.0,Calm,Calm,-,N/A,,Overcast,0,2013-08-25 03:35:00
11:55 PM,77.0,73.9,90,30.24,10.0,Calm,Calm,-,N/A,,Overcast,0,2013-08-25 03:55:00